Regional Weather Roundup
Issued by NWS

Home | Current Version | Previous Version | Text Only | Print | Product List | Glossary On
Versions: 1 2 3 4 5 6 7 8 9 10 11 12 13 14 15 16 17 18 19 20 21 22 23 24 25 26 27 28 29 30 31 32 33 34 35 36 37 38 39 40 41 42 43 44 45 46 47 48 49 50
000
ASUS45 KREV 250510
RWRNV
NEVADA REGIONAL WEATHER ROUNDUP
NATIONAL WEATHER SERVICE RENO NV
1000 PM PDT THU JUL 24 2014

NOTE: "FAIR" INDICATES FEW OR NO CLOUDS BELOW 12,000 FEET WITH NO
SIGNIFICANT WEATHER AND/OR OBSTRUCTIONS TO VISIBILITY.

NVZ001-003-004-250600-
WESTERN NEVADA

CITY           SKY/WX    TMP DP  RH WIND       PRES   REMARKS
RENO           PTCLDY    79  29  16 NW3       30.04R
CARSON CITY    FAIR      75  32  20 N9        30.06R
SLIDE MTN        N/A     57  37  47 CALM        N/A
PYRAMID LAKE     N/A     77 N/A N/A W3          N/A
FALLON         CLEAR     73  30  20 N8        29.98R
LOVELOCK       CLEAR     76  21  12 N7        29.99R
HAWTHORNE      CLEAR     81  34  18 W3        30.00R
$$

NVZ002-CAZ072-073-250600-
NORTHERN AND CENTRAL SIERRA

CITY           SKY/WX    TMP DP  RH WIND       PRES   REMARKS
S. LAKE TAHOE  CLEAR     61  43  51 CALM      30.18R
TRUCKEE        CLEAR     61  41  48 NE3       30.17R
SQUAW VLY 8000 NOT AVBL
BLUE CANYON    CLEAR     67  39  35 N3        30.14S
MAMMOTH LAKES  FAIR      66  23  19 W13       30.23R
BRIDGEPORT     FAIR      64  34  32 W3        30.19R
$$

NVZ030-031-036-250600-
NORTHERN NEVADA

CITY           SKY/WX    TMP DP  RH WIND       PRES   REMARKS
ELKO           CLEAR     71  29  21 NE6       30.06R
WINNEMUCCA     CLEAR     70  23  17 NW5       30.06R
WENDOVER       CLEAR     79  37  22 N23G30    30.00R
$$

NVZ035-037-250600-
CENTRAL NEVADA

CITY           SKY/WX    TMP DP  RH WIND       PRES   REMARKS
ELY            CLEAR     69  21  16 S12       30.12R
EUREKA           N/A     68  26  20 CALM      30.12R
$$

NVZ013-014-250600-
SOUTH CENTRAL NEVADA

CITY           SKY/WX    TMP DP  RH WIND       PRES   REMARKS
TONOPAH        CLEAR     77  13   9 S8        30.05R
$$

NVZ017-020-022-250600-
SOUTHERN NEVADA

CITY           SKY/WX    TMP DP  RH WIND       PRES   REMARKS
LAS VEGAS      PTCLDY   101  31   8 S9        29.77R
N. LAS VEGAS   CLEAR    101  29   8 W6        29.79R
NELLIS AFB     PTCLDY   100  35  10 S7        29.77R
HENDERSON      PTCLDY    97  33  10 SE8       29.84R
MERCURY        CLEAR     94  23   8 SW10      29.88R
$$



USA.gov is the U.S. government's official web portal to all federal, state and local government web resources and services.